Home   Weather   Tunis   Past weeks

Flag for Tunisia Past Weather in Tunis, Tunisia — Yesterday and Last 2 Weeks

Now
63 °F

Passing clouds.


Feels Like: 63 °F
Forecast: 56 / 84 °F
Wind: 13 mph from Southeast

Location: Tunis-Carthage

Current Time: Apr 25, 2017 at 11:30:07 pm

Latest Report: Apr 25, 2017 at 10:30 pm


Visibility: N/A

Pressure: 29.92 "Hg

Humidity: 73%

Dew Point: 54 °F

Location of TunisLocation

Past Weather in Tunis — Graph

°F

Tunis Temperature Yesterday

Maximum temperature yesterday: 75 °F (at 1:00 pm)
Minimum temperature yesterday: 52 °F (at 5:00 am)
Average temperature yesterday: 65 °F

High & Low Weather Summary for the Past Weeks

 TemperatureHumidityPressure
High81 °F (Apr 15, 12:30 pm)94% (Apr 10, 10:00 pm)30.33 "Hg (Apr 10, 10:00 pm)
Low48 °F (Apr 23, 5:00 am)24% (Apr 23, 1:30 pm)29.86 "Hg (Apr 25, 6:00 pm)
Average63 °F56%30.07 "Hg
* Reported Apr 10 10:00 pm — Apr 25 10:00 pm, Tunis, Weather by CustomWeather, © 2017

Note: Actual official high and low records may vary slightly from our data, if they occured in-between our weather recording intervals... More about our weather records

Advertising

Tunis Weather History for the Previous 24 Hours

Scroll right to see more
 ConditionsComfort  
Time TempWeatherWind HumidityBarometerVisibility
10:00 pm
Tue, Apr 25
63 °FPassing clouds.14 mph77%29.92 "HgN/A
9:30 pm63 °FPassing clouds.15 mph77%29.92 "HgN/A
9:00 pm64 °FPassing clouds.17 mph73%29.89 "HgN/A
8:30 pm64 °FPassing clouds.17 mph78%29.89 "HgN/A
8:00 pm64 °FPassing clouds.13 mph78%29.89 "HgN/A
7:30 pm64 °FPassing clouds.12 mph78%29.86 "HgN/A
7:00 pm64 °FPassing clouds.15 mph78%29.86 "HgN/A
6:30 pm66 °FPassing clouds.14 mph73%29.86 "HgN/A
6:00 pm68 °FPassing clouds.14 mph64%29.86 "HgN/A
5:30 pm68 °FPassing clouds.16 mph64%29.89 "HgN/A
5:00 pm70 °FPassing clouds.15 mph64%29.89 "HgN/A
4:30 pm70 °FPassing clouds.14 mph60%29.89 "HgN/A
3:30 pm72 °FPassing clouds.17 mph61%29.89 "HgN/A
3:00 pm72 °FPassing clouds.17 mph61%29.89 "HgN/A
2:30 pm72 °FPassing clouds.17 mph61%29.92 "HgN/A
2:00 pm72 °FPassing clouds.18 mph57%29.92 "HgN/A
1:30 pm72 °FPassing clouds.18 mph57%29.92 "HgN/A
12:30 pm72 °FPassing clouds.18 mph57%29.92 "HgN/A
12:00 pm72 °FPassing clouds.18 mph61%29.95 "HgN/A
11:30 am72 °FPassing clouds.16 mph61%29.95 "HgN/A
11:00 am72 °FPassing clouds.13 mph61%29.95 "HgN/A
10:30 am70 °FPassing clouds.10 mph60%29.95 "HgN/A
10:00 am70 °FPassing clouds.12 mph60%29.95 "HgN/A
9:30 am70 °FPassing clouds.13 mph60%29.95 "HgN/A
9:00 am68 °FPassing clouds.9 mph64%29.98 "HgN/A
8:00 am64 °FPassing clouds.6 mph68%29.98 "HgN/A
7:30 am63 °FPassing clouds.3 mph73%29.95 "HgN/A
7:00 am61 °FPassing clouds.3 mph77%29.95 "HgN/A
6:30 am57 °FPassing clouds.3 mph82%29.95 "HgN/A
6:00 am55 °FPassing clouds.3 mph88%29.95 "HgN/A
5:00 am54 °FPassing clouds.No wind94%29.95 "HgN/A
4:30 am55 °FPassing clouds.3 mph88%29.95 "HgN/A
3:30 am55 °FPassing clouds.2 mph88%29.95 "HgN/A
3:00 am57 °FPassing clouds.3 mph82%29.95 "HgN/A
2:30 am59 °FPassing clouds.3 mph77%29.95 "HgN/A
2:00 am59 °FPassing clouds.5 mph77%29.98 "HgN/A
1:30 am57 °FPassing clouds.6 mph82%29.98 "HgN/A
1:00 am55 °FPassing clouds.7 mph88%29.98 "HgN/A
12:30 am57 °FPassing clouds.9 mph82%29.98 "HgN/A
12:00 am59 °FPassing clouds.8 mph77%30.01 "HgN/A
Weather by CustomWeather, © 2017

See weather overviewHow to use our weather pages